Weather History for Roseau, MN

Change the Weather History Date:

Friday, May 10, 2013

  Actual Average Record
Temperature  
Mean Temperature 48 °F -  
Max Temperature 60 °F 64 °F 86 °F (1991)
Min Temperature 35 °F 38 °F 11 °F (1981)
Degree Days  
Heating Degree Days 18    
Moisture  
Dew Point 33 °F    
Average Humidity 59    
Maximum Humidity 70    
Minimum Humidity 45    
Precipitation  
Precipitation 0.00 in - - ()
Sea Level Pressure  
Sea Level Pressure 30.04 in    
Wind  
Wind Speed 12 mph (SW)    
Max Wind Speed 29 mph    
Max Gust Speed 37 mph    
Visibility 10 miles    
Events Rain    
Averages and records for this station are not official NWS values.
T = Trace of Precipitation, MM = Missing Value Source: NWS Daily Summary

Daily Weather History Graph

Daily Weather History Graph

Search for Another Location

Airport:

Trip Planner

Search our weather history database for the weather conditions in past years. The results will help you decide how hot, cold, wet, or windy it might be!

Date:

Astronomy

May. 10, 2013 Rise Set
Actual Time 5:47 AM CDT 8:51 PM CDT
Civil Twilight 5:10 AM CDT 9:28 PM CDT
Nautical Twilight 4:22 AM CDT 10:17 PM CDT
Astronomical Twilight 3:22 AM CDT 11:18 PM CDT
Moon 6:12 AM CDT (5/10) 9:44 PM CDT (5/10)
Length of Visible Light 16h 18m
Length of Day
15h 04m
New Moon, 0% of the Moon is Illuminated
May 10
New Moon
May 17
First Quarter
May 24
Full
May 31
Last Quarter
Jun 8
New

Hourly Weather History & Observations

Time (CDT) Temp. Windchill Dew Point Humidity Pressure Visibility Wind Dir Wind Speed Gust Speed Precip Events Conditions
12:15 AM 39.2 °F 35.0 °F 28.4 °F 65% 30.21 in 10.0 mi East 5.8 mph - N/A   Clear
12:54 AM 39.2 °F 34.2 °F 26.6 °F 61% 30.21 in 10.0 mi East 6.9 mph - N/A   Clear
1:15 AM 39.2 °F 35.0 °F 26.6 °F 61% 30.21 in 10.0 mi East 5.8 mph - N/A   Clear
1:34 AM 39.2 °F 35.0 °F 24.8 °F 56% 30.20 in 10.0 mi ESE 5.8 mph - N/A   Clear
1:54 AM 39.2 °F 33.6 °F 24.8 °F 56% 30.20 in 10.0 mi ESE 8.1 mph - N/A   Clear
2:15 AM 39.2 °F 35.0 °F 24.8 °F 56% 30.19 in 10.0 mi ESE 5.8 mph - N/A   Clear
2:34 AM 39.2 °F 35.0 °F 24.8 °F 56% 30.18 in 10.0 mi ESE 5.8 mph - N/A   Clear
2:54 AM 37.4 °F 32.8 °F 24.8 °F 60% 30.17 in 10.0 mi ESE 5.8 mph - N/A   Clear
3:14 AM 37.4 °F 32.1 °F 23.0 °F 56% 30.16 in 10.0 mi SE 6.9 mph - N/A   Clear
3:54 AM 37.4 °F 32.1 °F 24.8 °F 60% 30.15 in 10.0 mi SE 6.9 mph - N/A   Clear
4:14 AM 37.4 °F 30.8 °F 24.8 °F 60% 30.15 in 10.0 mi SE 9.2 mph - N/A   Clear
4:34 AM 37.4 °F 32.1 °F 24.8 °F 60% 30.14 in 10.0 mi SE 6.9 mph - N/A   Clear
4:54 AM 35.6 °F 29.9 °F 24.8 °F 65% 30.14 in 10.0 mi SE 6.9 mph - N/A   Clear
5:14 AM 35.6 °F 29.9 °F 24.8 °F 65% 30.13 in 10.0 mi SE 6.9 mph - N/A   Clear
5:34 AM 35.6 °F 29.2 °F 24.8 °F 65% 30.12 in 10.0 mi SE 8.1 mph - N/A   Clear
5:55 AM 35.6 °F 29.2 °F 26.6 °F 70% 30.11 in 10.0 mi SSE 8.1 mph - N/A   Clear
6:14 AM 37.4 °F 30.3 °F 28.4 °F 70% 30.11 in 10.0 mi South 10.4 mph - N/A   Clear
6:34 AM 39.2 °F 31.2 °F 30.2 °F 70% 30.11 in 10.0 mi South 13.8 mph - N/A   Clear
7:14 AM 39.2 °F 30.8 °F 30.2 °F 70% 30.09 in 10.0 mi South 15.0 mph - N/A   Clear
7:34 AM 42.8 °F 35.1 °F 30.2 °F 61% 30.09 in 10.0 mi South 16.1 mph - N/A   Clear
8:14 AM 44.6 °F 37.2 °F 33.8 °F 66% 30.07 in 10.0 mi South 17.3 mph - N/A   Clear
8:34 AM 46.4 °F 39.5 °F 33.8 °F 62% 30.06 in 10.0 mi South 17.3 mph - N/A   Clear
8:54 AM 48.2 °F - 35.6 °F 62% 30.05 in 10.0 mi South 17.3 mph - N/A   Clear
9:14 AM 50.0 °F - 35.6 °F 58% 30.04 in 10.0 mi South 21.9 mph 26.5 mph N/A   Clear
9:34 AM 51.8 °F - 37.4 °F 58% 30.04 in 10.0 mi SSW 21.9 mph - N/A   Clear
9:54 AM 51.8 °F - 37.4 °F 58% 30.03 in 10.0 mi South 20.7 mph - N/A   Clear
10:14 AM 53.6 °F - 37.4 °F 54% 30.03 in 10.0 mi SSW 18.4 mph 23.0 mph N/A   Clear
10:34 AM 53.6 °F - 39.2 °F 58% 30.01 in 10.0 mi SSW 16.1 mph 21.9 mph N/A   Clear
10:54 AM 55.4 °F - 39.2 °F 54% 30.00 in 10.0 mi SSW 21.9 mph 25.3 mph N/A   Clear
11:14 AM 55.4 °F - 41.0 °F 58% 29.99 in 10.0 mi SW 17.3 mph 23.0 mph N/A   Clear
11:34 AM 55.4 °F - 42.8 °F 63% 29.98 in 10.0 mi SW 21.9 mph 25.3 mph N/A   Clear
12:14 PM 57.2 °F - 42.8 °F 59% 29.96 in 10.0 mi SSW 17.3 mph 24.2 mph N/A   Clear
12:34 PM 57.2 °F - 41.0 °F 55% 29.95 in 10.0 mi SW 17.3 mph 24.2 mph N/A   Clear
12:54 PM 57.2 °F - 39.2 °F 51% 29.96 in 10.0 mi SW 16.1 mph 25.3 mph N/A   Scattered Clouds
1:14 PM 57.2 °F - 41.0 °F 55% 29.95 in 10.0 mi SW 17.3 mph - N/A   Scattered Clouds
1:34 PM 59.0 °F - 41.0 °F 51% 29.94 in 10.0 mi SW 18.4 mph 21.9 mph N/A   Scattered Clouds
1:54 PM 60.8 °F - 41.0 °F 48% 29.92 in 10.0 mi SW 19.6 mph 24.2 mph N/A   Clear
2:14 PM 60.8 °F - 41.0 °F 48% 29.91 in 10.0 mi SW 16.1 mph 24.2 mph N/A   Clear
2:34 PM 59.0 °F - 41.0 °F 51% 29.91 in 10.0 mi SW 17.3 mph - N/A Rain Light Rain
2:54 PM 57.2 °F - 42.8 °F 59% 29.90 in 10.0 mi SW 12.7 mph 19.6 mph N/A Rain Rain
3:14 PM 57.2 °F - 41.0 °F 55% 29.90 in 10.0 mi WSW 10.4 mph 16.1 mph N/A   Mostly Cloudy
3:34 PM 59.0 °F - 41.0 °F 51% 29.89 in 10.0 mi West 8.1 mph - N/A   Mostly Cloudy
3:54 PM 59.0 °F - 37.4 °F 45% 29.89 in 10.0 mi WNW 15.0 mph 19.6 mph N/A   Mostly Cloudy
4:14 PM 55.4 °F - 37.4 °F 51% 29.91 in 10.0 mi NNW 21.9 mph 32.2 mph N/A   Scattered Clouds
4:34 PM 51.8 °F - 37.4 °F 58% 29.92 in 10.0 mi NW 23.0 mph - N/A   Scattered Clouds
4:54 PM 51.8 °F - 39.2 °F 62% 29.93 in 10.0 mi NNW 18.4 mph 27.6 mph N/A   Scattered Clouds
5:14 PM 53.6 °F - 42.8 °F 67% 29.93 in 10.0 mi NNW 20.7 mph 25.3 mph N/A   Scattered Clouds
5:34 PM 53.6 °F - 42.8 °F 67% 29.92 in 10.0 mi North 26.5 mph 32.2 mph N/A   Scattered Clouds
5:54 PM 55.4 °F - 39.2 °F 54% 29.93 in 10.0 mi NNW 26.5 mph 34.5 mph N/A   Scattered Clouds
6:14 PM 53.6 °F - 39.2 °F 58% 29.95 in 10.0 mi North 26.5 mph 34.5 mph N/A   Scattered Clouds
6:34 PM 50.0 °F - 39.2 °F 66% 29.97 in 10.0 mi North 26.5 mph 36.8 mph N/A   Scattered Clouds
6:54 PM 48.2 °F - 35.6 °F 62% 29.99 in 10.0 mi NNW 28.8 mph 35.7 mph N/A   Scattered Clouds
7:14 PM 48.2 °F - 35.6 °F 62% 30.00 in 10.0 mi NNW 26.5 mph 33.4 mph N/A   Scattered Clouds
7:34 PM 46.4 °F 38.3 °F 33.8 °F 62% 30.01 in 10.0 mi NNW 23.0 mph 29.9 mph N/A   Scattered Clouds
7:54 PM 46.4 °F 38.7 °F 32.0 °F 57% 30.02 in 10.0 mi NNW 20.7 mph 31.1 mph N/A   Clear
8:14 PM 46.4 °F 39.8 °F 32.0 °F 57% 30.03 in 10.0 mi NNW 16.1 mph - N/A   Clear
8:34 PM 44.6 °F 37.4 °F 33.8 °F 66% 30.03 in 10.0 mi NNW 16.1 mph - N/A   Scattered Clouds
8:54 PM 44.6 °F 37.2 °F 32.0 °F 61% 30.04 in 10.0 mi NNW 17.3 mph 24.2 mph N/A   Scattered Clouds
9:14 PM 44.6 °F 37.2 °F 30.2 °F 57% 30.04 in 10.0 mi NNW 17.3 mph 27.6 mph N/A   Clear
9:34 PM 42.8 °F 34.5 °F 28.4 °F 57% 30.05 in 10.0 mi NNW 18.4 mph 24.2 mph N/A   Clear
9:54 PM 42.8 °F 35.1 °F 28.4 °F 57% 30.06 in 10.0 mi NNW 16.1 mph - N/A   Clear
10:14 PM 41.0 °F 34.7 °F 28.4 °F 61% 30.06 in 10.0 mi NNW 10.4 mph - N/A   Clear
10:34 PM 39.2 °F 32.0 °F 28.4 °F 65% 30.07 in 10.0 mi NNW 11.5 mph - N/A   Clear
10:54 PM 39.2 °F 32.5 °F 26.6 °F 61% 30.07 in 10.0 mi NNW 10.4 mph - N/A   Clear
11:14 PM 39.2 °F 32.5 °F 26.6 °F 61% 30.07 in 10.0 mi NNW 10.4 mph - N/A   Clear
11:34 PM 39.2 °F 31.6 °F 26.6 °F 61% 30.07 in 10.0 mi NNW 12.7 mph - N/A   Clear
11:54 PM 39.2 °F 31.6 °F 26.6 °F 61% 30.07 in 10.0 mi NNW 12.7 mph - N/A   Clear